| time (UTC) | temp C | wind direction | speed KPH | gust KPH | rain 1hr cm | rain 24hr cm | rain mn cm | humidity % | barometer mb |
| 20260508013019 | 16 | 291 | 0.0 | 3.2 | 0.00 | 0.00 | 0.00 | 27 | 1015.9 |
| 20260508011535 | 16 | 299 | 1.6 | 4.8 | 0.00 | 0.00 | 0.00 | 29 | 1015.9 |
| 20260508010020 | 17 | 319 | 3.2 | 8.0 | 0.00 | 0.00 | 0.00 | 27 | 1015.7 |
| 20260508004526 | 17 | 346 | 3.2 | 8.0 | 0.00 | 0.00 | 0.00 | 28 | 1015.7 |
| 20260508003021 | 17 | 304 | 1.6 | 9.7 | 0.00 | 0.00 | 0.00 | 27 | 1015.6 |
| 20260508001521 | 17 | 248 | 6.4 | 19.3 | 0.00 | 0.00 | 0.00 | 26 | 1015.4 |
| 20260508000023 | 17 | 330 | 3.2 | 12.9 | 0.00 | 0.00 | 0.00 | 26 | 1015.6 |
| 20260507234523 | 18 | 327 | 3.2 | 12.9 | 0.00 | 0.00 | 0.00 | 25 | 1015.7 |
| 20260507233023 | 18 | 215 | 3.2 | 9.7 | 0.00 | 0.00 | 0.00 | 25 | 1015.6 |
| 20260507231534 | 19 | 315 | 3.2 | 16.1 | 0.00 | 0.00 | 0.00 | 24 | 1015.7 |
| 20260507230024 | 20 | 250 | 1.6 | 19.3 | 0.00 | 0.00 | 0.00 | 24 | 1015.6 |
| 20260507224522 | 20 | 308 | 8.0 | 20.9 | 0.00 | 0.00 | 0.00 | 25 | 1015.7 |
| 20260507223023 | 19 | 347 | 8.0 | 20.9 | 0.00 | 0.00 | 0.00 | 24 | 1015.7 |
| 20260507221522 | 19 | 328 | 12.9 | 20.9 | 0.00 | 0.00 | 0.00 | 24 | 1015.7 |
| 20260507220025 | 20 | 293 | 4.8 | 16.1 | 0.00 | 0.00 | 0.00 | 23 | 1015.9 |
| 20260507214521 | 20 | 351 | 8.0 | 22.5 | 0.00 | 0.00 | 0.00 | 25 | 1016.0 |
| 20260507213026 | 20 | 240 | 3.2 | 16.1 | 0.00 | 0.00 | 0.00 | 25 | 1016.2 |
| 20260507211525 | 20 | 352 | 6.4 | 16.1 | 0.00 | 0.00 | 0.00 | 27 | 1016.5 |
| 20260507210023 | 19 | 317 | 4.8 | 16.1 | 0.00 | 0.00 | 0.00 | 27 | 1016.8 |
| 20260507204521 | 20 | 311 | 6.4 | 14.5 | 0.00 | 0.00 | 0.00 | 27 | 1017.1 |
| 20260507203026 | 19 | 323 | 3.2 | 12.9 | 0.00 | 0.00 | 0.00 | 28 | 1017.4 |
| 20260507201521 | 19 | 265 | 3.2 | 16.1 | 0.00 | 0.05 | 0.00 | 28 | 1017.6 |
| 20260507200029 | 19 | 317 | 3.2 | 20.9 | 0.00 | 0.08 | 0.00 | 30 | 1017.8 |
| 20260507194522 | 18 | 23 | 11.3 | 20.9 | 0.00 | 0.08 | 0.00 | 25 | 1018.0 |
| 20260507193024 | 19 | 329 | 3.2 | 19.3 | 0.00 | 0.10 | 0.00 | 28 | 1018.1 |
| 20260507191524 | 18 | 254 | 6.4 | 16.1 | 0.00 | 0.13 | 0.00 | 28 | 1018.1 |
| 20260507190025 | 18 | 288 | 3.2 | 12.9 | 0.00 | 0.41 | 0.00 | 27 | 1018.3 |
| 20260507184522 | 17 | 316 | 1.6 | 9.7 | 0.00 | 0.43 | 0.00 | 25 | 1018.3 |
| 20260507183035 | 17 | 205 | 3.2 | 11.3 | 0.00 | 0.43 | 0.00 | 26 | 1018.3 |
| 20260507181522 | 17 | 9 | 0.0 | 6.4 | 0.00 | 0.43 | 0.00 | 25 | 1018.3 |
| 20260507180036 | 16 | 304 | 1.6 | 6.4 | 0.00 | 0.43 | 0.00 | 26 | 1018.7 |
| 20260507174531 | 17 | 5 | 3.2 | 17.7 | 0.00 | 0.43 | 0.00 | 26 | 1018.7 |
| 20260507173024 | 17 | 247 | 0.0 | 9.7 | 0.00 | 0.43 | 0.00 | 24 | 1019.1 |
| 20260507171522 | 16 | 275 | 1.6 | 6.4 | 0.00 | 0.43 | 0.00 | 22 | 1019.2 |
| 20260507170022 | 16 | 352 | 1.6 | 9.7 | 0.00 | 0.43 | 0.00 | 27 | 1019.2 |
| 20260507164524 | 15 | 187 | 0.0 | 6.4 | 0.00 | 0.43 | 0.00 | 27 | 1019.3 |
| 20260507163025 | 14 | 267 | 1.6 | 8.0 | 0.00 | 0.43 | 0.00 | 30 | 1019.3 |
| 20260507161538 | 13 | 250 | 3.2 | 8.0 | 0.00 | 0.43 | 0.00 | 31 | 1019.7 |
| 20260507160034 | 12 | 304 | 4.8 | 12.9 | 0.00 | 0.43 | 0.00 | 34 | 1019.6 |
| 20260507154532 | 11 | 304 | 6.4 | 14.5 | 0.00 | 0.43 | 0.00 | 35 | 1019.7 |
| 20260507153026 | 11 | 313 | 4.8 | 9.7 | 0.00 | 0.43 | 0.00 | 39 | 1019.7 |
| 20260507151535 | 10 | 336 | 4.8 | 9.7 | 0.00 | 0.43 | 0.00 | 43 | 1019.9 |
| 20260507150024 | 9 | 338 | 3.2 | 16.1 | 0.00 | 0.43 | 0.00 | 46 | 1019.9 |
| 20260507144524 | 8 | 317 | 4.8 | 12.9 | 0.00 | 0.43 | 0.00 | 48 | 1019.8 |
| 20260507143025 | 7 | 329 | 6.4 | 12.9 | 0.00 | 0.43 | 0.00 | 52 | 1019.8 |
| 20260507141526 | 5 | 301 | 4.8 | 12.9 | 0.00 | 0.43 | 0.00 | 56 | 1019.8 |
| 20260507140026 | 4 | 360 | 0.0 | 6.4 | 0.00 | 0.43 | 0.00 | 59 | 1019.7 |
| 20260507134535 | 3 | 16 | 3.2 | 6.4 | 0.00 | 0.43 | 0.00 | 62 | 1019.7 |
| 20260507133024 | 2 | 34 | 3.2 | 6.4 | 0.00 | 0.43 | 0.00 | 62 | 1019.4 |
| 20260507131530 | 2 | 27 | 0.0 | 6.4 | 0.00 | 0.43 | 0.00 | 63 | 1019.2 |
| 20260507130026 | 1 | 36 | 1.6 | 6.4 | 0.00 | 0.43 | 0.00 | 63 | 1019.2 |
| 20260507124524 | 1 | 26 | 1.6 | 4.8 | 0.00 | 0.43 | 0.00 | 64 | 1018.9 |
| 20260507123028 | 0 | 40 | 1.6 | 3.2 | 0.00 | 0.43 | 0.00 | 65 | 1019.0 |
| 20260507121526 | 0 | 21 | 1.6 | 8.0 | 0.00 | 0.43 | 0.00 | 64 | 1018.9 |
| 20260507120025 | 0 | 35 | 1.6 | 8.0 | 0.00 | 0.43 | 0.00 | 65 | 1018.9 |
| 20260507114529 | 0 | 30 | 1.6 | 8.0 | 0.00 | 0.43 | 0.00 | 67 | 1018.9 |
| 20260507113024 | -1 | 26 | 3.2 | 8.0 | 0.00 | 0.43 | 0.00 | 71 | 1019.1 |
| 20260507111524 | -2 | 22 | 3.2 | 4.8 | 0.00 | 0.43 | 0.00 | 76 | 1019.0 |
| 20260507110022 | -2 | 67 | 0.0 | 3.2 | 0.00 | 0.43 | 0.00 | 76 | 1019.1 |
| 20260507104525 | -1 | 67 | 0.0 | 0.0 | 0.00 | 0.43 | 0.00 | 76 | 1019.1 |
| 20260507103027 | -1 | 67 | 0.0 | 1.6 | 0.00 | 0.43 | 0.00 | 76 | 1018.9 |
| 20260507101524 | -1 | 92 | 0.0 | 1.6 | 0.00 | 0.43 | 0.00 | 77 | 1019.2 |
| 20260507100028 | -1 | 92 | 0.0 | 1.6 | 0.00 | 0.43 | 0.00 | 78 | 1019.3 |
| 20260507094522 | -1 | 92 | 0.0 | 3.2 | 0.00 | 0.43 | 0.00 | 79 | 1019.2 |
| 20260507093023 | -1 | 20 | 0.0 | 1.6 | 0.00 | 0.43 | 0.00 | 82 | 1019.3 |
| 20260507091524 | -1 | 20 | 0.0 | 6.4 | 0.00 | 0.43 | 0.00 | 85 | 1019.3 |
| 20260507090035 | -2 | 355 | 4.8 | 8.0 | 0.00 | 0.43 | 0.00 | 87 | 1019.5 |
| 20260507084533 | -2 | 30 | 1.6 | 6.4 | 0.00 | 0.43 | 0.00 | 88 | 1019.5 |
| 20260507083024 | -2 | 22 | 0.0 | 4.8 | 0.00 | 0.43 | 0.00 | 89 | 1019.5 |
| 20260507081524 | -2 | 14 | 0.0 | 3.2 | 0.00 | 0.43 | 0.00 | 89 | 1019.8 |
| 20260507080022 | -2 | 22 | 0.0 | 0.0 | 0.00 | 0.43 | 0.00 | 88 | 1019.8 |
| 20260507074536 | -2 | 22 | 0.0 | 4.8 | 0.00 | 0.43 | 0.00 | 88 | 1020.0 |
| 20260507073022 | -2 | 26 | 1.6 | 4.8 | 0.00 | 0.43 | 0.00 | 88 | 1020.1 |
| 20260507071522 | -1 | 52 | 0.0 | 1.6 | 0.00 | 0.43 | 0.00 | 88 | 1020.2 |
| 20260507070022 | -1 | 52 | 0.0 | 1.6 | 0.00 | 0.43 | 0.00 | 88 | 1020.2 |
| 20260507064524 | -1 | 82 | 0.0 | 1.6 | 0.00 | 0.43 | 0.00 | 88 | 1020.4 |
| 20260507063025 | -1 | 96 | 0.0 | 1.6 | 0.00 | 0.43 | 0.00 | 88 | 1020.3 |
| 20260507061522 | -1 | 96 | 0.0 | 1.6 | 0.00 | 0.43 | 0.00 | 87 | 1020.3 |
| 20260507060020 | -1 | 96 | 0.0 | 0.0 | 0.00 | 0.43 | 0.00 | 87 | 1020.4 |
| 20260507054522 | -1 | 96 | 0.0 | 3.2 | 0.00 | 0.43 | 0.43 | 87 | 1020.2 |
| 20260507053022 | -1 | 128 | 0.0 | 1.6 | 0.00 | 0.43 | 0.43 | 87 | 1020.2 |
| 20260507051533 | -1 | 136 | 0.0 | 1.6 | 0.00 | 0.43 | 0.43 | 86 | 1020.2 |
| 20260507050021 | 0 | 136 | 0.0 | 0.0 | 0.00 | 0.43 | 0.43 | 86 | 1020.0 |
| 20260507044523 | 0 | 136 | 0.0 | 1.6 | 0.00 | 0.43 | 0.43 | 86 | 1020.2 |
| 20260507043020 | 0 | 136 | 0.0 | 3.2 | 0.00 | 0.43 | 0.43 | 86 | 1020.2 |
| 20260507041519 | 0 | 134 | 0.0 | 3.2 | 0.00 | 0.43 | 0.43 | 85 | 1020.3 |
| 20260507040022 | 0 | 112 | 0.0 | 6.4 | 0.00 | 0.43 | 0.43 | 84 | 1020.3 |
| 20260507034534 | 0 | 134 | 0.0 | 3.2 | 0.00 | 0.43 | 0.43 | 83 | 1020.2 |
| 20260507033022 | 0 | 142 | 0.0 | 3.2 | 0.00 | 0.43 | 0.43 | 81 | 1020.1 |
| 20260507031520 | 0 | 61 | 0.0 | 3.2 | 0.00 | 0.43 | 0.43 | 80 | 1020.1 |
| 20260507030020 | 0 | 157 | 0.0 | 1.6 | 0.00 | 0.43 | 0.43 | 79 | 1019.9 |
| 20260507024531 | 0 | 190 | 0.0 | 1.6 | 0.00 | 0.43 | 0.43 | 78 | 1019.8 |
| 20260507023018 | 1 | 276 | 0.0 | 1.6 | 0.00 | 0.43 | 0.43 | 77 | 1019.7 |
| 20260507021519 | 1 | 215 | 1.6 | 4.8 | 0.00 | 0.43 | 0.43 | 75 | 1019.8 |
| 20260507020020 | 1 | 219 | 0.0 | 6.4 | 0.00 | 0.46 | 0.43 | 74 | 1019.7 |
| 20260507014533 | 1 | 219 | 1.6 | 8.0 | 0.00 | 0.46 | 0.43 | 73 | 1019.5 |